Weather in Yasenskaya Pereprava

Russia / Krasnodar Krai     46°15′05″N   38°17′39″E
В апреле 2022 года жителям России запретили посещать сайт meteo.paraplan.net по решению Генеральной прокуратуры. Аудитория сайта уменьшилась в 10 раз. Владельцы сайта не видят смысла в поддержке погодного сервера в таких условиях. Сайт будет закрыт в октябре.
temp.,
°C
wind,
m/s
gust,
m/s
humid.,
%
clouds,
%
prec.,
mm/h
press.,
hPa
HPBL,
m
4 october, tue
tue400:00+17se5563100 0.0 1013323
03:00+16s346398 0.2 1013244
06:00+16se3462100 0.0 1013221
09:00+16se1163100 0.1 1014196
12:00+15sse4475100 0.5 1015348
15:00+16wsw34775 0.6 1016359
18:00+17w347446 0.0 1017317
21:00+17wnw34705 0.0 1019482
5 october, wed
wed500:00+17nw456727 0.0 1020577
03:00+15nnw566178 0.0 1021334
06:00+14nnw5665100 0.0 1022356
09:00+15nnw566192 0.0 1023548
12:00+16wnw445056 0.0 1025785
15:00+16w55562 0.0 1025692
18:00+16wnw66590 0.0 1025744
21:00+16wnw45610 0.0 1026561
6 october, thu
thu600:00+16nnw45610 0.0 1026552
03:00+15nnw336213 0.0 1026269
06:00+14n2363100 0.0 1026182
09:00+15n225866 0.0 1026244
12:00+17wnw22505 0.0 1026667
15:00+17wnw5454100 0.0 1025771
18:00+17n555181 0.0 1026486
21:00+16nne34520 0.0 1026183
7 october, fri
fri700:00+15nne44570 0.0 1026168
03:00+15ne34610 0.0 1026149
06:00+14ene44640 0.0 1026164
09:00+15ene45600 0.0 1025262
12:00+18ene35503 0.0 1025606
15:00+20ne44485 0.0 1023407
18:00+19nne68537 0.0 1023156
21:00+17ne611575 0.0 1023320
8 october, sat
sat800:00+16ene611575 0.0 1022365
03:00+16ene7125815 0.0 1021398
06:00+15ene9156148 0.0 1021460
09:00+16ene1016595 0.0 1020716
12:00+20e11145010 0.0 1018781
15:00+21e9124554 0.0 1017604
18:00+20ene81252100 0.0 1017347
21:00+19ene91454100 0.0 1016466